Regional Weather Roundup
Issued by NWS

Home | Current Version | Previous Version | Graphics & Text | Print | Product List | Glossary Off
Versions: 1 2 3 4 5 6 7 8 9 10 11 12 13 14 15 16 17 18 19 20 21 22 23 24 25 26 27 28 29 30 31 32 33 34 35 36 37 38 39 40 41 42 43 44 45 46 47 48 49 50

000
ASUS43 KLSX 291407
RWRMO

WEATHER SUMMARY FOR MISSOURI
NATIONAL WEATHER SERVICE SPRINGFIELD MO
900 AM CDT FRI MAY 29 2015

NOTE: "FAIR" INDICATES FEW OR NO CLOUDS BELOW 12,000 FEET WITH NO
       SIGNIFICANT WEATHER AND/OR OBSTRUCTIONS TO VISIBILITY.
       CURRENT SKY AND/OR WEATHER CONDITIONS ARE NOT AVAILABLE FOR
       CHILLICOTHE AND FARMINGTON.

MOZ001>031-035>038-043-044-053-054-291500-
...NORTHERN AND WESTERN MISSOURI...

CITY           SKY/WX    TMP DP  RH WIND       PRES   REMARKS
KANSAS CTY INT CLOUDY    67  63  87 SW10      29.96R
KANSAS C DTWN  CLOUDY    68  62  81 SW10      29.96R
LEE`S SUMMIT   CLOUDY    66  62  87 S9        29.99S
ST JOSEPH      CLOUDY    67  64  90 SW3       29.96R
CHILLICOTHE      N/A     68  66  93 S5        29.98S
KIRKSVILLE     CLOUDY    67  66  97 SW9       30.00R

$$
MOZ066>068-077>081-088>096-101>105-291500-
...SOUTHWEST MISSOURI...

CITY           SKY/WX    TMP DP  RH WIND       PRES   REMARKS
SPRINGFIELD    HVY RAIN  67  64  90 CALM      30.06S FOG
JOPLIN         LGT RAIN  67  66  97 N6        30.04F FOG

$$
MOZ032>034-039>042-045>050-055>058-069>072-291500-
...CENTRAL MISSOURI...

CITY           SKY/WX    TMP DP  RH WIND       PRES   REMARKS
COLUMBIA       CLOUDY    70  65  84 SW13      30.04R
JEFFERSON CITY CLOUDY    72  64  76 SW8       30.03R
ROLLA          MOSUNNY   71  65  81 S10       30.04R
SEDALIA        CLOUDY    68  64  87 SW8       30.04R
WHITEMAN AFB   LGT RAIN  66  64  94 W2        30.00S
WARRENSBURG    LGT RAIN  64  63  94 S5        30.00S
OSAGE BEACH    CLOUDY    66  63  88 W5        30.05R

$$
MOZ051-052-059>065-291500-
...EAST CENTRAL MISSOURI...

CITY           SKY/WX    TMP DP  RH WIND       PRES   REMARKS
ST LOUIS INTL  PTSUNNY   78  67  68 S8        30.04R
SPIRIT OF STL  MOSUNNY  N/A N/A N/A S12G18    30.02R
ST CHARLES     MOSUNNY   77  67  71 S13       30.03R

$$
MOZ072>076-082>087-097>100-106>115-291500-
...SOUTH CENTRAL AND SOUTHEAST MISSOURI...

CITY           SKY/WX    TMP DP  RH WIND       PRES   REMARKS
CAPE GIRARDEAU MOSUNNY   74  69  85 S8        30.09R
FARMINGTON     PTSUNNY   72  68  88 SW13      30.11S
POPLAR BLUFF   SUNNY     75  68  78 S3        30.07R
WEST PLAINS    SUNNY     72  65  78 S7        30.09R

$$


USA.gov is the U.S. government's official web portal to all federal, state and local government web resources and services.